Back to catalog

ICEYE-X62

AliveScienceSSO
NORAD 66755·PAYLOAD·🇵🇱 Poland

Launched Nov 28, 2025 from Vandenberg Space Force Base

Loading…

Next Passes (next 24 hours)

TLE

FreshSource: Space-Track

Epoch: Sep 14, 2026, 04:16 UTC

1 66755U 25276CT  26257.17819815  .00001384  00000-0  87929-4 0  9998
2 66755  97.4124 326.5867 0003891  71.9781 288.1873 15.10428421 43764

Track ICEYE-X62 in real time with AllMySat

Download on the App Store